Regional Weather Roundup
Issued by NWS

Home | Current Version | Previous Version | Text Only | Print | Product List | Glossary Off
Versions: 1 2 3 4 5 6 7 8 9 10 11 12 13 14 15 16 17 18 19 20 21 22 23 24 25 26 27 28 29 30 31 32 33 34 35 36 37 38 39 40 41 42 43 44 45 46 47 48 49 50

000
ASUS43 KIND 310409
RWRIN

WEATHER ROUNDUP FOR INDIANA
NATIONAL WEATHER SERVICE INDIANAPOLIS IN
1200 AM EDT THU JUL 31 2014

NOTE: "FAIR" INDICATES FEW OR NO CLOUDS BELOW 12,000 FEET WITH NO
SIGNIFICANT WEATHER AND/OR OBSTRUCTIONS TO VISIBILITY.

* - STATION DOES NOT REPORT WEATHER SUCH AS PRECIPITATION OR FOG.

+ - STATION NOT QUALITY CONTROLLED BY THE NATIONAL WEATHER SERVICE.
    USE DATA WITH CAUTION...ESPECIALLY DEWPOINT AND RELATIVE
    HUMIDITY OBSERVATIONS.

INZ001>003-010>013-019-020-310500-
NORTHWEST INDIANA

CITY           SKY/WX    TMP DP  RH WIND       PRES   REMARKS
GARY /AIRPORT/ CLEAR     60  58  94 CALM      30.05S FOG
KNOX *+        CLEAR     57  54  91 CALM      30.04S
LA PORTE +     MOCLDY    56  56 100 CALM      30.05S
MICHIGAN CITY+ FOG       57  57 100 CALM      30.05S VSB 1
MONTICELLO +   CLEAR     60  59  96 NW3       30.04R
RENSSELAER +   CLEAR     61  59  94 CALM      30.05S
VALPARAISO     PTCLDY    59  56  89 CALM      30.05S

$$

LMZ046-743>745-310500-
SOUTHERN LAKE MICHIGAN

STATION/POSITION TIME  TEMP WIND        PRES
                       AIR  DIR/SP/G
                 (UTC) (F)  (DEG/KT/KT) (MB)
MICHIGAN CITY    0400   63  140/  1/  2   N/A

$$

INZ004-005-014>016-021>024-310500-
NORTH CENTRAL INDIANA

CITY           SKY/WX    TMP DP  RH WIND       PRES   REMARKS
GOSHEN         PTCLDY    60  56  86 CALM      30.04S
LOGANSPORT +   CLEAR     61  57  88 CALM      30.05S
PERU/GRISSOM   CLEAR     65  64  96 CALM      30.04S
ROCHESTER +    PTCLDY    63  63 100 CALM      30.05S
SOUTH BEND     CLEAR     60  55  83 CALM      30.05S
WARSAW +       MOCLDY    63  57  82 CALM      30.04S

$$

INZ006>009-017-018-025>027-310500-
NORTHEAST INDIANA

CITY           SKY/WX    TMP DP  RH WIND       PRES   REMARKS
ANGOLA *+      CLEAR     61  55  82 N3        30.04S
AUBURN +       MOCLDY    63  55  77 CALM      30.05S
FORT WAYNE     MOCLDY    63  59  87 CALM      30.04S
HUNTINGTON +   PTCLDY    62  61  97 CALM      30.04S

$$

INZ028-029-035-036-043>045-051>053-310500-
WEST CENTRAL INDIANA

CITY           SKY/WX    TMP DP  RH WIND       PRES   REMARKS
GREENCASTLE +  CLEAR     61  61 100 CALM      30.07S
LAFAYETTE      CLEAR     62  60  93 CALM      30.04S
TERRE HAUTE    CLEAR     61  57  87 CALM      30.06S

$$

INZ030>032-037>040-046>048-054>057-064-065-310500-
CENTRAL INDIANA

CITY           SKY/WX    TMP DP  RH WIND       PRES   REMARKS
CP ATTERBURY + PTCLDY    64  61  88 CALM      30.07S
INDIANAPOLIS   PTCLDY    64  61  90 SW6       30.05S
-EAGLE CREEK   CLEAR     64  61  90 CALM      30.05S
KOKOMO *+      CLEAR     63  57  82 W5        30.05R
MARION +       CLEAR     59  57  95 CALM      30.05S
MT COMFORT *+  CLEAR     63 N/A N/A SW3       30.06S
SHELBYVILLE    MOCLDY    68  61  78 W8        30.06R
ZIONSVILLE +   CLEAR     64  59  86 CALM      30.06S

$$

INZ033-034-041-042-049-050-058-059-310500-
EAST CENTRAL INDIANA

CITY           SKY/WX    TMP DP  RH WIND       PRES   REMARKS
MUNCIE         CLEAR     66  60  81 SW7       30.05S

$$

INZ060-061-067>069-081>083-085>088-310500-
SOUTHWEST INDIANA

CITY           SKY/WX    TMP DP  RH WIND       PRES   REMARKS
EVANSVILLE     MOCLDY    70  60  70 W3        30.08S
WASHINGTON +   CLEAR     66  62  85 SW7       30.06S

$$

INZ062-063-066-070>080-084-089>092-310500-
SOUTH CENTRAL AND SOUTHEAST INDIANA

CITY           SKY/WX    TMP DP  RH WIND       PRES   REMARKS
BLOOMINGTON    CLEAR     62  60  93 CALM      30.07S FOG
NORTH VERNON + MOCLDY    66  66 100 CALM      30.07

$$



USA.gov is the U.S. government's official web portal to all federal, state and local government web resources and services.